GFSNGP_2pvu_pres_273.txt.gz
Presure
177 175 185 165 204 275 275 259 188 223 208 215 218 209 217 224 266 266 240 253 247 243 255 250 263 286 254 283 294 289 314 326 350 361 383 469 418 366 339 346 342 334 353 351
186 200 214 203 188 207 194 187 214 223 187 218 216 213 228 222 273 266 256 246 240 253 242 280 272 254 265 274 280 299 291 307 343 354 369 484 443 376 349 350 379 327 337 349
202 196 202 206 235 211 224 221 224 201 218 206 220 206 233 240 267 260 247 238 246 241 285 260 254 264 264 263 269 277 292 306 313 355 364 474 471 411 350 360 373 368 345 335
208 195 216 221 182 179 222 202 222 206 213 208 213 208 225 269 261 249 238 241 245 246 258 260 258 260 249 274 269 267 277 288 315 324 374 368 486 456 370 355 371 367 336 329
210 202 231 183 163 231 215 204 212 207 202 198 205 229 260 261 256 240 237 245 265 267 262 251 249 249 263 257 254 263 277 274 288 316 356 387 396 476 439 351 368 346 330 312
169 193 231 274 178 225 223 222 217 208 212 208 234 267 269 260 244 237 247 260 254 248 245 242 245 238 237 249 259 253 258 275 277 291 337 376 398 496 470 421 366 327 321 316
199 198 226 259 230 220 215 208 213 203 208 218 239 276 268 249 239 248 257 232 240 241 235 239 241 238 248 239 250 251 251 262 267 274 300 343 388 426 487 461 391 321 309 301
215 186 252 242 220 217 208 199 198 207 216 233 216 288 256 241 250 255 250 242 239 233 237 232 227 238 232 237 238 251 247 247 268 271 285 301 362 419 493 475 451 387 306 297
195 247 220 224 214 163 209 182 199 208 216 253 298 270 245 247 254 239 214 227 217 219 227 232 226 229 234 233 232 244 252 255 263 258 269 289 317 387 450 482 463 439 375 305
196 274 237 215 203 206 201 192 200 236 246 299 280 250 245 237 234 217 230 227 227 234 235 234 230 227 221 231 235 231 246 251 252 266 260 270 291 360 436 488 467 451 425 364
292 205 220 195 171 202 193 216 207 263 310 304 255 250 240 244 221 224 238 228 223 217 212 223 224 227 229 226 226 238 235 246 251 251 266 272 279 294 420 494 483 453 440 412
293 236 211 213 208 193 195 191 254 321 318 261 253 247 230 232 220 225 215 222 221 221 215 217 226 226 219 226 227 223 239 228 253 251 252 262 266 286 323 473 490 470 445 430
264 197 215 175 192 188 201 248 300 283 263 261 252 225 217 220 221 203 214 227 225 217 217 231 225 222 217 225 217 229 226 240 238 246 248 262 265 281 284 442 501 479 459 435
236 204 211 206 180 190 199 261 286 273 272 253 235 203 219 194 207 225 214 203 209 224 222 216 215 215 222 214 229 216 227 228 240 246 248 254 266 269 284 309 493 484 467 450
217 210 204 198 179 204 192 259 266 286 264 228 224 211 213 225 217 216 218 215 208 205 208 213 207 222 219 213 213 234 223 228 240 233 241 253 277 266 272 282 317 488 473 461
210 206 195 197 179 183 188 231 183 199 162 221 205 217 211 212 216 213 205 213 209 208 206 205 215 217 224 229 224 211 219 228 230 237 231 245 244 266 270 283 282 495 479 459
211 199 198 190 183 177 192 194 215 203 208 154 169 212 212 208 199 208 203 203 200 201 204 215 209 212 206 213 226 228 210 220 234 224 241 229 251 252 267 275 283 315 488 472
206 198 195 180 187 187 194 193 202 198 204 200 175 194 189 200 196 193 195 203 205 205 205 197 205 194 221 213 222 218 235 225 222 240 218 247 241 252 254 261 277 298 352 480
204 199 198 177 179 179 191 180 178 195 188 195 194 200 201 203 207 201 200 198 196 196 201 203 206 206 215 207 213 220 214 222 229 229 238 222 239 245 248 258 263 281 301 446
202 192 198 179 179 185 190 180 185 189 188 186 183 184 188 191 193 196 196 200 194 197 196 197 202 207 201 214 211 211 225 233 234 231 226 237 239 241 246 254 251 269 291 312
193 193 195 189 189 182 186 185 192 190 172 189 185 197 196 205 194 189 190 196 192 189 189 195 200 207 203 205 209 212 221 220 227 231 231 243 239 253 249 252 256 266 273 303
203 184 199 187 192 179 183 181 188 182 184 188 191 190 183 185 189 183 184 188 194 192 194 192 204 196 206 203 203 211 213 224 218 227 237 232 233 225 235 242 253 255 267 278
204 193 200 189 170 186 175 181 184 189 186 187 181 188 187 192 188 184 184 187 190 199 188 194 197 201 194 210 207 205 215 214 223 216 233 235 229 241 240 250 235 263 255 275
207 201 194 196 182 168 180 180 185 183 194 175 182 174 190 191 183 185 183 182 193 180 194 193 194 194 195 200 208 206 202 214 218 215 224 234 229 236 238 234 251 251 258 269
210 207 199 199 191 184 187 183 188 185 190 192 186 185 183 187 193 191 186 185 192 193 183 191 187 195 194 193 198 205 203 211 214 223 218 227 233 237 239 240 239 233 262 255
210 208 198 197 197 184 181 177 189 186 184 180 183 184 188 189 188 177 180 183 187 191 189 192 185 184 196 196 194 193 205 200 215 216 217 225 232 229 233 231 231 255 243 255
210 207 202 200 198 193 184 176 175 174 183 181 184 181 187 188 187 185 190 181 176 185 193 189 195 191 188 200 205 192 203 216 205 216 221 221 229 232 234 230 249 239 252 248

GFSNGP_2pvu_pres_279.txt.gz
Presure
181 182 184 176 174 186 179 176 191 204 214 258 227 242 238 223 208 212 286 269 255 240 241 238 243 239 244 241 238 233 245 242 245 249 269 287 318 431 458 508 412 371 348 341
181 181 184 162 193 184 189 185 202 220 267 172 250 242 228 212 209 260 268 272 251 229 238 238 246 230 228 231 234 237 237 236 248 240 262 269 309 349 455 518 477 377 356 344
175 182 182 165 189 177 180 197 208 222 267 256 240 228 220 184 246 276 275 249 225 239 216 236 238 238 237 237 233 234 245 240 241 249 250 272 284 332 457 520 497 423 351 367
187 177 175 196 183 185 150 203 170 251 260 243 229 209 212 234 285 272 245 231 220 216 226 234 230 226 218 222 223 236 235 228 251 246 256 255 274 298 458 510 505 466 372 368
172 187 177 183 186 152 205 196 239 223 248 233 214 207 236 297 270 250 231 224 210 236 232 227 237 244 228 232 241 230 234 247 231 254 248 263 271 277 318 510 513 488 431 364
177 191 175 169 186 205 197 152 263 253 235 209 205 240 313 271 263 235 217 200 237 222 228 230 224 226 216 210 237 229 225 233 230 260 242 249 266 270 295 429 520 504 467 372
181 190 187 175 210 174 174 242 265 240 180 211 218 336 283 275 242 229 217 221 218 213 213 216 221 229 223 215 228 230 240 231 235 233 241 243 252 271 277 305 526 511 497 450
193 189 190 205 155 204 177 253 238 188 209 206 350 288 279 240 233 235 226 214 194 213 223 216 198 215 225 223 221 217 225 223 227 237 237 244 240 263 275 290 318 513 501 491
178 207 173 214 204 213 236 255 214 220 203 202 293 283 254 223 229 203 212 205 221 216 193 218 213 214 211 211 214 221 216 224 224 219 233 230 245 241 265 273 291 355 502 491
200 189 187 196 148 171 253 235 228 210 204 302 288 258 230 241 221 188 213 208 193 206 208 204 213 205 212 210 207 209 210 216 207 222 222 233 242 240 253 265 274 291 399 498
185 186 169 146 227 237 248 215 219 208 198 281 254 240 241 225 197 194 184 210 206 198 194 192 205 203 202 202 212 214 210 216 214 227 224 229 227 239 246 254 263 274 302 471
199 193 196 217 240 261 232 217 207 204 268 259 245 235 203 185 175 157 189 200 200 197 199 202 197 202 197 201 204 194 203 213 209 223 229 231 230 243 237 252 252 270 278 302
190 172 153 203 223 240 224 215 202 207 209 238 229 225 219 212 193 202 203 199 192 183 193 193 198 199 193 193 195 202 209 203 201 219 221 217 222 239 241 253 258 252 262 281
202 207 202 221 248 224 211 204 197 196 194 224 176 218 215 214 208 199 204 192 193 194 193 190 194 196 194 197 202 195 212 211 204 208 216 221 215 214 243 246 257 252 254 260
199 211 220 211 234 214 207 200 192 196 191 198 214 213 201 196 196 191 196 187 189 191 192 192 192 193 199 199 193 194 203 211 207 205 212 216 219 235 213 247 241 263 258 261
199 208 221 277 224 213 204 198 195 194 191 187 189 196 198 208 207 190 193 193 187 187 184 191 189 198 186 185 192 191 200 199 205 208 203 214 217 208 232 213 241 248 263 259
205 208 215 262 225 213 203 197 194 195 190 183 193 202 189 203 197 194 191 193 188 187 184 182 183 192 186 187 193 194 202 204 191 208 212 208 212 215 210 230 229 250 259 262
201 208 212 217 246 221 209 200 201 200 185 182 196 192 195 200 193 190 187 192 196 194 193 191 188 193 190 194 198 199 194 201 202 204 204 207 214 217 215 209 225 221 247 255
202 213 210 221 213 230 220 206 202 187 191 187 182 193 189 181 189 196 190 192 192 188 188 193 193 183 193 190 200 195 197 201 203 204 210 209 206 218 217 223 228 225 241 249
200 209 188 210 234 209 232 218 207 203 170 194 192 184 176 186 187 191 191 192 195 187 185 191 192 194 195 193 196 198 201 191 186 201 206 210 196 200 216 217 221 227 227 251
213 220 205 200 226 228 179 183 222 209 204 200 192 186 182 182 184 187 192 194 192 188 191 192 193 191 188 199 196 196 202 191 194 194 202 209 205 210 211 217 224 227 227 229
214 218 211 217 208 238 211 302 233 216 210 201 193 200 189 181 168 185 186 186 189 190 185 189 188 187 189 194 196 195 198 191 194 203 201 203 202 204 209 214 218 226 230 248
211 218 210 187 203 195 227 207 257 231 215 211 205 202 194 199 195 183 179 178 182 182 181 184 183 186 191 192 191 194 195 197 202 197 204 204 203 205 212 211 222 226 228 246
212 213 188 197 176 204 205 234 207 260 234 223 214 209 206 202 198 197 196 198 197 182 182 189 194 195 200 198 194 188 195 195 193 193 204 206 203 207 216 213 227 223 226 247
211 219 214 191 197 201 214 209 222 215 282 252 231 223 217 211 207 203 200 201 202 201 202 200 196 202 200 202 203 208 197 199 197 198 197 210 210 213 220 221 219 220 233 244
213 214 210 195 191 201 205 200 204 214 219 294 273 263 246 235 228 221 216 212 210 207 207 206 207 206 206 205 206 206 206 209 209 210 213 216 221 221 222 224 227 226 240 243
209 210 210 206 183 200 192 203 204 206 213 227 210 239 299 262 255 247 241 237 230 225 221 218 216 214 215 216 214 210 211 213 213 224 230 229 222 218 224 222 229 241 241 244

GFSNGP_2pvu_pres_282.txt.gz
Presure
196 197 205 210 188 179 191 177 190 185 176 177 167 251 251 248 232 223 283 277 257 236 237 242 246 238 246 216 238 231 240 234 239 240 246 260 261 291 335 524 514 478 389 367
175 115 196 215 178 191 194 201 192 201 164 224 271 152 251 235 227 299 285 260 241 245 243 216 224 227 217 229 224 226 230 231 239 240 244 248 262 270 327 526 513 491 422 370
180 205 182 191 184 179 176 179 156 163 186 265 197 188 237 227 256 294 262 249 243 236 211 227 227 231 229 229 226 221 223 231 232 241 246 245 252 263 288 406 517 498 464 368
172 178 188 194 183 174 184 189 133 179 181 158 198 245 218 225 295 269 248 238 227 209 217 208 215 211 221 215 216 231 230 230 234 237 241 247 257 256 272 304 525 503 476 414
178 179 179 192 186 182 164 200 199 226 237 168 251 230 220 305 279 254 243 224 182 211 226 199 216 216 216 215 218 206 219 221 220 234 245 259 252 249 258 278 318 514 490 459
157 194 186 187 159 187 187 195 163 213 247 248 240 226 211 300 259 250 237 210 216 211 212 209 211 210 215 212 215 212 215 218 215 226 228 246 258 253 254 256 282 316 514 476
186 181 166 182 188 174 192 187 207 215 190 239 206 218 292 262 251 232 216 227 159 212 220 206 201 208 203 197 194 207 209 213 213 215 223 229 249 252 264 255 268 285 374 512
186 178 180 187 173 188 167 215 152 258 239 237 224 240 291 246 242 220 216 185 197 207 198 206 200 206 200 197 212 210 204 208 212 217 219 224 225 255 260 269 260 266 296 455
165 178 193 186 120 194 216 194 159 253 230 226 219 300 247 250 226 214 178 203 201 201 205 208 203 197 191 195 192 213 209 202 207 214 208 226 229 227 259 255 266 254 275 302
183 181 177 203 160 183 199 225 247 233 232 221 307 253 251 234 222 183 185 191 203 193 194 197 196 199 205 204 201 200 209 208 204 203 211 206 224 225 223 252 249 271 253 273
198 196 198 199 191 193 209 230 227 230 220 212 255 250 236 201 205 215 209 186 198 197 198 194 195 197 191 193 193 195 195 204 204 207 207 207 210 226 223 223 247 251 274 260
194 194 179 192 188 160 231 253 227 225 213 226 254 200 208 206 190 197 201 190 194 186 192 191 195 194 190 190 186 197 197 206 203 206 209 210 207 210 219 235 223 253 250 274
188 169 190 188 197 152 217 255 224 219 211 198 232 220 194 198 204 194 197 192 189 183 186 188 183 187 186 186 192 200 201 208 204 208 210 200 212 210 214 226 223 235 260 248
194 182 187 167 188 221 258 242 216 215 204 193 207 193 187 200 195 213 187 190 193 189 186 192 189 186 192 193 190 206 192 191 199 204 204 207 208 210 208 215 230 226 233 259
191 199 184 192 207 212 282 235 212 213 205 193 205 189 189 200 190 192 195 190 186 188 196 195 193 194 198 188 196 200 192 203 193 198 204 211 203 202 209 214 215 233 222 238
196 183 172 191 209 209 266 236 214 211 203 203 199 190 194 192 193 196 200 185 199 186 180 194 193 191 194 195 194 188 200 201 200 188 196 206 210 207 204 212 217 230 230 224
196 190 209 199 208 204 238 233 225 211 205 201 204 192 186 191 197 191 184 188 191 191 194 196 188 180 194 195 191 184 199 201 198 191 194 197 211 213 206 208 218 223 232 229
198 195 202 208 194 219 213 242 223 224 212 208 202 183 189 190 190 186 182 185 189 190 193 195 198 195 189 190 185 190 183 197 195 191 197 198 202 214 206 212 216 226 224 228
196 199 205 204 196 211 220 220 226 244 226 216 208 199 199 199 191 191 191 191 190 183 185 183 184 184 186 184 187 188 193 199 202 199 201 198 193 213 204 216 230 218 227 230
196 196 204 200 200 223 215 198 219 226 208 189 210 212 204 201 200 198 197 191 193 193 192 187 185 190 192 185 192 192 199 200 203 206 210 210 206 215 211 224 235 237 231 231
190 201 201 193 193 213 230 215 207 238 225 213 235 227 215 211 205 199 197 199 199 199 198 196 196 199 201 201 201 203 199 202 210 209 210 213 217 214 221 226 229 228 236 235
193 199 197 191 190 221 209 219 218 215 224 224 223 262 238 227 219 216 212 210 210 208 206 206 205 205 204 204 206 208 211 213 215 217 219 221 219 224 225 232 233 233 236 233
202 202 185 183 177 215 222 213 176 191 214 209 220 217 296 258 241 233 227 224 223 221 220 219 219 220 221 223 223 222 225 230 230 228 228 230 229 235 237 239 234 235 234 243
202 195 188 189 188 219 218 218 205 198 199 213 212 199 219 212 218 294 298 293 285 274 266 261 258 253 251 250 248 244 240 244 245 241 240 246 242 241 243 239 241 243 241 242
200 203 192 195 204 214 216 219 210 200 198 199 205 207 203 207 206 212 228 236 233 225 222 298 226 267 278 275 270 266 261 255 249 248 247 244 242 247 247 243 245 248 245 250
194 200 199 198 188 202 213 211 210 201 197 205 205 201 208 211 200 194 199 200 207 221 225 249 252 253 253 254 266 264 264 263 263 260 256 256 256 249 250 253 250 254 258 257
196 193 193 200 190 199 218 210 211 212 209 207 188 204 210 210 205 203 202 207 202 207 206 216 217 230 228 233 242 245 244 249 250 250 250 253 255 253 253 252 253 250 256 257

GFSNGP_2pvu_pres_288.txt.gz
Presure
225 214 213 196 203 212 193 205 176 182 209 162 171 177 201 215 220 252 235 279 258 251 238 227 218 205 218 213 215 208 220 214 218 214 219 230 237 246 255 263 282 309 434 393
208 224 209 205 211 198 200 185 197 213 210 185 198 208 211 178 280 241 224 273 255 244 225 212 195 204 215 211 207 210 212 212 210 205 214 217 232 240 245 264 268 287 349 394
222 207 203 205 162 195 193 203 204 215 180 186 197 208 149 165 201 229 239 256 253 233 226 189 209 204 213 201 192 212 206 205 212 212 219 216 223 233 244 248 271 270 290 416
210 203 200 213 202 191 181 197 217 175 173 191 175 209 212 248 236 220 264 253 236 227 211 184 209 212 205 191 196 211 206 212 211 210 213 215 218 225 237 248 254 275 278 298
209 215 203 185 189 192 200 203 176 201 166 199 195 206 273 242 227 281 257 247 207 217 199 212 203 203 211 196 201 199 198 195 204 208 210 206 217 214 227 244 250 257 275 282
211 202 197 189 189 176 200 205 186 187 189 204 204 205 240 235 246 269 244 187 222 198 215 204 207 200 192 187 197 200 205 198 195 202 203 213 216 218 209 231 247 256 244 274
199 189 193 207 177 193 186 171 191 183 197 102 205 237 239 222 284 252 238 222 198 201 212 200 194 195 197 202 204 199 201 200 204 203 208 208 212 221 221 226 236 251 255 264
194 194 162 197 181 181 185 175 187 182 201 190 202 241 227 317 245 248 207 222 214 207 194 198 195 195 200 195 195 195 203 199 200 203 201 199 208 216 223 223 230 240 253 256
195 193 200 201 203 178 197 177 193 177 201 191 201 238 221 224 209 228 200 224 212 196 199 195 195 192 189 197 203 189 199 199 194 196 198 211 211 215 219 225 229 241 245 253
189 190 173 172 161 184 172 171 188 158 192 189 249 230 216 227 226 209 203 214 204 200 194 199 198 201 195 203 204 201 201 200 195 200 203 208 214 216 216 229 229 249 245 257
183 189 176 186 181 184 166 155 195 202 202 201 244 224 214 212 200 199 195 206 208 193 192 202 190 196 195 200 196 198 198 198 202 207 207 212 213 215 219 234 240 250 252 256
187 188 194 175 181 161 180 161 201 194 203 203 250 223 215 208 209 189 200 196 198 199 200 197 192 195 196 192 193 192 200 205 206 207 209 213 215 218 233 238 252 252 255 257
184 169 159 193 188 165 190 198 194 202 205 154 257 222 212 203 205 202 186 202 203 198 200 199 201 194 194 195 201 208 206 203 207 207 214 216 226 234 239 253 253 255 258 255
153 186 175 182 188 166 191 196 201 203 204 217 225 234 213 210 205 207 202 194 192 199 197 200 199 201 202 204 201 201 204 207 213 215 223 238 241 258 255 263 257 254 256 257
151 182 187 185 177 189 193 193 202 206 201 215 205 259 225 210 209 208 207 202 206 208 205 205 204 205 203 202 203 208 214 219 229 238 241 253 268 269 272 265 262 262 257 260
188 182 185 178 186 190 191 157 199 204 212 212 202 222 226 240 217 214 212 211 209 181 205 209 208 210 211 213 214 216 232 245 247 260 274 279 280 275 273 273 270 268 269 266
187 184 141 184 188 194 200 198 203 200 211 212 199 218 218 214 243 246 234 225 221 207 210 212 214 215 217 227 243 254 265 289 286 231 244 263 263 267 256 262 257 255 254 256
191 187 182 184 190 197 184 200 199 195 208 210 206 228 225 219 210 277 250 216 219 246 243 241 243 247 274 301 291 228 235 242 244 226 243 242 247 241 239 238 253 259 261 258
192 188 187 188 193 195 195 194 198 191 211 210 210 189 224 226 226 229 230 257 234 230 237 241 213 206 212 207 205 205 196 235 238 230 239 238 242 247 246 240 250 249 257 257
190 187 187 189 195 195 191 196 196 207 199 197 210 221 221 217 210 187 186 219 212 206 205 215 224 221 226 221 225 224 225 245 236 244 240 240 241 227 236 235 250 261 263 260
187 184 185 189 191 187 195 193 200 199 161 202 203 224 193 222 221 217 199 217 220 213 214 215 218 219 216 218 220 218 224 229 227 234 224 238 239 235 230 232 238 249 252 264
186 181 184 189 190 192 189 195 195 203 195 199 209 197 200 223 222 213 215 213 213 214 216 206 206 211 216 215 226 232 242 227 230 236 220 232 228 230 235 230 232 240 251 274
178 180 187 187 190 188 195 194 193 203 207 209 208 202 192 216 213 214 215 213 206 206 200 199 199 204 223 223 221 224 225 227 231 234 227 228 234 228 236 238 230 238 246 270
181 184 186 189 188 192 192 193 198 176 195 200 210 193 205 206 210 193 223 222 216 213 212 210 219 207 207 203 212 214 218 223 223 223 216 230 237 234 233 238 239 230 243 259
182 166 189 189 185 191 192 193 192 184 184 200 210 214 204 204 198 203 202 202 220 227 231 229 233 229 227 225 222 222 223 224 226 222 215 231 222 227 233 237 238 229 243 246
181 187 190 181 191 189 195 194 190 188 190 201 195 205 209 201 203 211 219 218 207 207 206 209 225 229 231 231 230 229 232 234 235 236 236 238 242 229 226 231 232 229 238 246
184 187 182 190 189 180 198 190 195 187 194 201 195 197 208 209 210 217 174 217 228 216 203 217 225 215 208 218 219 220 221 226 228 231 233 231 232 245 246 239 230 235 235 238